����,���ϕ���(m/s),���ϕ���,�ő�u�ԕ���(m/s),�ő啗��������,�C��(��),���x(%),10���Ԉړ��ώZ�J��(mm),1���Ԉړ��ώZ�J��(mm),���J��(mm),�݌v�J��(mm),����(���ώZ)(MJ/m2),����(���ώZ)(min),���n�C��(hPa),�C�ʋC��(hPa)
2020-04-13T00:00:00+09:00,4.2,�k�k��,9.2,�k��,7.5,91.3,1.5,5.5,23.5,23.5,3.64,0,986.8,1000.8
2020-04-13T00:01:00+09:00,4,�k�k��,9.2,�k��,7.5,91.2,1,5.5,0,23.5,0,0,986.8,1000.8
2020-04-13T00:02:00+09:00,3.8,�k�k��,9.2,�k��,7.5,91.2,1,5.5,0,23.5,0,0,986.7,1000.7
2020-04-13T00:03:00+09:00,3.8,�k,9.2,�k��,7.5,91.3,1,5.5,0,23.5,0,0,986.6,1000.6
2020-04-13T00:04:00+09:00,3.9,�k,10.3,�k,7.5,91.4,1,5.5,0,23.5,0,0,986.6,1000.6
2020-04-13T00:05:00+09:00,4,�k,10.3,�k,7.5,91.5,0.5,5.5,0,23.5,0,0,986.5,1000.5
2020-04-13T00:06:00+09:00,3.8,�k,10.3,�k,7.5,91.5,1,5.5,0.5,24,0,0,986.5,1000.5
2020-04-13T00:07:00+09:00,3.8,�k,10.3,�k,7.5,91.3,1,5.5,0.5,24,0,0,986.5,1000.5
2020-04-13T00:08:00+09:00,3.9,�k,10.3,�k,7.6,91.5,1,5.5,0.5,24,0,0,986.4,1000.4
2020-04-13T00:09:00+09:00,4.1,�k,10.3,�k,7.6,91.6,0.5,5.5,0.5,24,0,0,986.4,1000.4
2020-04-13T00:10:00+09:00,4.3,�k,10.3,�k,7.5,91.4,0.5,5.5,0.5,24,0,0,986.3,1000.3
2020-04-13T00:11:00+09:00,4.4,�k,10.3,�k,7.5,91.2,1,6,1,24.5,0,0,986.2,1000.2
2020-04-13T00:12:00+09:00,4.6,�k,10.3,�k,7.7,91.7,1,5.5,1,24.5,0,0,986.1,1000.1
2020-04-13T00:13:00+09:00,4.5,�k,10.3,�k,7.7,91.9,1,5.5,1,24.5,0,0,986.1,1000.1
2020-04-13T00:14:00+09:00,4.5,�k,10,�k,7.7,91.5,1,5.5,1,24.5,0,0,986,1000
2020-04-13T00:15:00+09:00,4.8,�k,11.8,�k��,7.8,91.4,1,5.5,1,24.5,0,0,986,1000
2020-04-13T00:16:00+09:00,5,�k,11.8,�k��,7.9,91.4,1,6,1.5,25,0,0,985.9,999.9
2020-04-13T00:17:00+09:00,5.1,�k�k��,11.8,�k��,7.9,90.9,1,6,1.5,25,0,0,985.9,999.9
2020-04-13T00:18:00+09:00,5.1,�k�k��,11.8,�k��,7.9,90.5,1,6,1.5,25,0,0,985.9,999.9
2020-04-13T00:19:00+09:00,5,�k�k��,11.8,�k��,8,90.3,1,5.5,1.5,25,0,0,986,1000
2020-04-13T00:20:00+09:00,5,�k�k��,11.8,�k��,7.9,90.1,1,5.5,1.5,25,0,0,985.9,999.9
2020-04-13T00:21:00+09:00,5.1,�k�k��,11.8,�k��,7.9,89.8,0.5,5.5,1.5,25,0,0,986,1000
2020-04-13T00:22:00+09:00,5,�k�k��,11.8,�k��,7.9,89.8,0.5,5.5,1.5,25,0,0,986,1000
2020-04-13T00:23:00+09:00,5,�k�k��,11.8,�k��,7.9,89.8,0.5,5.5,1.5,25,0,0,986,1000
2020-04-13T00:24:00+09:00,5,�k�k��,11.8,�k��,7.9,90,1,5.5,2,25.5,0,0,985.8,999.8
2020-04-13T00:25:00+09:00,4.6,�k�k��,11.8,�k��,8,90.2,1,5.5,2,25.5,0,0,985.8,999.8
2020-04-13T00:26:00+09:00,4.5,�k�k��,11.8,�k��,8,90.2,0.5,5.5,2,25.5,0,0,985.9,999.9
2020-04-13T00:27:00+09:00,4.3,�k�k��,11.8,�k��,8,90.1,0.5,5.5,2,25.5,0,0,985.9,999.9
2020-04-13T00:28:00+09:00,4.1,�k�k��,9.5,�k,7.9,89.8,0.5,5.5,2,25.5,0,0,985.9,999.9
2020-04-13T00:29:00+09:00,4,�k�k��,9.5,�k,7.9,89.7,0.5,5.5,2,25.5,0,0,986,1000
2020-04-13T00:30:00+09:00,3.8,�k�k��,9.5,�k,7.9,89.9,0.5,5.5,2,25.5,0,0,986,1000
2020-04-13T00:31:00+09:00,3.6,�k�k��,9.5,�k,7.9,89.9,1,5.5,2.5,26,0,0,986,1000
2020-04-13T00:32:00+09:00,3.7,�k,9.5,�k,7.9,90.1,1,5.5,2.5,26,0,0,986,1000
2020-04-13T00:33:00+09:00,3.8,�k,9.5,�k,7.9,90.1,1,5.5,2.5,26,0,0,986,1000
2020-04-13T00:34:00+09:00,3.6,�k,9.3,�k�k��,7.8,90.3,0.5,5.5,2.5,26,0,0,985.9,999.9
2020-04-13T00:35:00+09:00,3.7,�k,9.3,�k�k��,7.8,90.6,0.5,5.5,2.5,26,0,0,985.9,999.9
2020-04-13T00:36:00+09:00,3.6,�k,9.3,�k�k��,7.8,90.9,0.5,5.5,2.5,26,0,0,985.9,999.9
2020-04-13T00:37:00+09:00,3.7,�k,8.5,�k�k��,7.9,91.1,1,6,3,26.5,0,0,985.8,999.8
2020-04-13T00:38:00+09:00,3.7,�k,8.6,�k,8,91.4,1,5.5,3,26.5,0,0,985.8,999.8
2020-04-13T00:39:00+09:00,3.7,�k,8.6,�k,8,91.3,1,5.5,3,26.5,0,0,985.7,999.7
2020-04-13T00:40:00+09:00,3.6,�k,8.6,�k,8,91,1,5.5,3,26.5,0,0,985.8,999.8
2020-04-13T00:41:00+09:00,3.6,�k,8.6,�k,8,90.9,0.5,5.5,3,26.5,0,0,985.7,999.7
2020-04-13T00:42:00+09:00,3.5,�k,8.6,�k,8,90.8,0.5,5.5,3,26.5,0,0,985.6,999.6
2020-04-13T00:43:00+09:00,3.4,�k�k��,8.6,�k,8,90.8,0.5,5,3,26.5,0,0,985.5,999.5
2020-04-13T00:44:00+09:00,3.4,�k�k��,8.6,�k,8,90.8,1,5.5,3.5,27,0,0,985.4,999.4
2020-04-13T00:45:00+09:00,3.6,�k�k��,10.4,�k,8,91,1,5.5,3.5,27,0,0,985.4,999.4
2020-04-13T00:46:00+09:00,3.7,�k�k��,10.4,�k,8.1,90.9,1,5,3.5,27,0,0,985.4,999.4
2020-04-13T00:47:00+09:00,3.7,�k�k��,10.4,�k,8,90.7,0.5,5,3.5,27,0,0,985.4,999.4
2020-04-13T00:48:00+09:00,3.7,�k�k��,10.4,�k,8.1,90.7,0.5,5,3.5,27,0,0,985.4,999.4
2020-04-13T00:49:00+09:00,3.9,�k�k��,10.4,�k,8,90.5,0.5,5,3.5,27,0,0,985.4,999.4
2020-04-13T00:50:00+09:00,4.4,�k�k��,10.4,�k,8,90.4,0.5,5,3.5,27,0,0,985.5,999.5
2020-04-13T00:51:00+09:00,4.7,�k�k��,10.4,�k,8.1,90.5,0.5,4.5,3.5,27,0,0,985.5,999.5
2020-04-13T00:52:00+09:00,4.8,�k�k��,10.4,�k,8,90.5,0.5,4.5,3.5,27,0,0,985.5,999.5
2020-04-13T00:53:00+09:00,4.9,�k�k��,10.4,�k,8.1,90.4,0.5,4.5,3.5,27,0,0,985.5,999.5
2020-04-13T00:54:00+09:00,5,�k�k��,10.4,�k,8.1,90.5,0.5,5,4,27.5,0,0,985.4,999.4
2020-04-13T00:55:00+09:00,5,�k�k��,9.9,�k��,8.1,90.6,0.5,4.5,4,27.5,0,0,985.4,999.4
2020-04-13T00:56:00+09:00,5,�k�k��,9.9,�k��,8.2,90.5,0.5,4.5,4,27.5,0,0,985.4,999.3
2020-04-13T00:57:00+09:00,5.1,�k�k��,9.9,�k��,8.2,90.3,0.5,4.5,4,27.5,0,0,985.4,999.3
2020-04-13T00:58:00+09:00,5.2,�k�k��,9.9,�k��,8.2,90.1,0.5,4.5,4,27.5,0,0,985.3,999.2
2020-04-13T00:59:00+09:00,5.2,�k�k��,9.9,�k��,8.2,90,0.5,4,4,27.5,0,0,985.2,999.1
2020-04-13T01:00:00+09:00,4.9,�k�k��,9.7,�k�k��,8.2,89.7,0.5,4,4,27.5,0,0,985.1,999
2020-04-13T01:01:00+09:00,4.9,�k�k��,9.7,�k�k��,8.2,89.7,1,4.5,4.5,28,0,0,985.1,999
2020-04-13T01:02:00+09:00,4.8,�k�k��,9.7,�k�k��,8.3,89.7,1,4.5,4.5,28,0,0,985.2,999.1
2020-04-13T01:03:00+09:00,4.7,�k�k��,9.7,�k�k��,8.3,89.7,1,4.5,4.5,28,0,0,985.2,999.1
2020-04-13T01:04:00+09:00,4.6,�k�k��,9.6,�k��,8.3,89.8,0.5,4.5,4.5,28,0,0,985,998.9
2020-04-13T01:05:00+09:00,4.5,�k�k��,9.6,�k��,8.2,89.7,0.5,4.5,4.5,28,0,0,985.1,999
2020-04-13T01:06:00+09:00,4.6,�k�k��,10.4,�k,8.2,89.5,1,4.5,5,28.5,0,0,985.1,999
2020-04-13T01:07:00+09:00,4.5,�k�k��,10.4,�k,8.2,89.6,1,4.5,5,28.5,0,0,985.1,999
2020-04-13T01:08:00+09:00,4.4,�k�k��,10.4,�k,8.2,89.6,1,4.5,5,28.5,0,0,985,998.9
2020-04-13T01:09:00+09:00,4.6,�k�k��,10.4,�k,8.2,89.7,1,4.5,5,28.5,0,0,985,998.9
2020-04-13T01:10:00+09:00,4.6,�k�k��,10.4,�k,8.2,89.6,1,4.5,5,28.5,0,0,985,998.9
2020-04-13T01:11:00+09:00,4.5,�k�k��,10.4,�k,8.2,89.6,1,4.5,5.5,29,0,0,985,998.9
2020-04-13T01:12:00+09:00,4.6,�k�k��,10.4,�k,8.2,89.6,1,4.5,5.5,29,0,0,985,998.9
2020-04-13T01:13:00+09:00,4.8,�k�k��,10.4,�k,8.2,89.6,1,4.5,5.5,29,0,0,985.1,999
2020-04-13T01:14:00+09:00,4.8,�k�k��,10.4,�k,8.1,89.8,1,4.5,5.5,29,0,0,985,998.9
2020-04-13T01:15:00+09:00,4.9,�k�k��,10.4,�k,8.2,90,1,4.5,5.5,29,0,0,985,998.9
2020-04-13T01:16:00+09:00,4.8,�k�k��,9.8,�k��,8.2,90,0.5,4,5.5,29,0,0,985.2,999.1
2020-04-13T01:17:00+09:00,4.9,�k�k��,9.8,�k��,8.2,90,0.5,4,5.5,29,0,0,985.2,999.1
2020-04-13T01:18:00+09:00,4.8,�k�k��,9.8,�k��,8.2,90.1,1,4.5,6,29.5,0,0,985.2,999.1
2020-04-13T01:19:00+09:00,4.4,�k�k��,8.4,�k��,8.2,90,1,4.5,6,29.5,0,0,985.1,999
2020-04-13T01:20:00+09:00,4.4,�k�k��,8.4,�k��,8.2,89.9,1,4.5,6,29.5,0,0,985.1,999
2020-04-13T01:21:00+09:00,4.2,�k�k��,8.4,�k��,8.2,89.7,0.5,4.5,6,29.5,0,0,985,998.9
2020-04-13T01:22:00+09:00,4.2,�k�k��,8.4,�k��,8.2,89.7,0.5,4.5,6,29.5,0,0,985,998.9
2020-04-13T01:23:00+09:00,4,�k�k��,8.4,�k��,8.2,89.9,1,5,6.5,30,0,0,985.1,999
2020-04-13T01:24:00+09:00,3.9,�k�k��,8.4,�k��,8.2,89.9,1,4.5,6.5,30,0,0,985,998.9
2020-04-13T01:25:00+09:00,3.9,�k�k��,8.4,�k��,8.2,90.1,1,4.5,6.5,30,0,0,985,998.9
2020-04-13T01:26:00+09:00,3.8,�k�k��,8.4,�k��,8.2,90.3,1,4.5,6.5,30,0,0,984.9,998.8
2020-04-13T01:27:00+09:00,3.7,�k�k��,8,�k��,8.2,90.2,1.5,5,7,30.5,0,0,984.8,998.7
2020-04-13T01:28:00+09:00,3.7,�k�k��,9.6,�k�k��,8.3,90.2,1,5,7,30.5,0,0,984.8,998.7
2020-04-13T01:29:00+09:00,4,�k�k��,9.8,�k,8.3,90.1,1,5,7,30.5,0,0,984.8,998.7
2020-04-13T01:30:00+09:00,4,�k�k��,9.8,�k,8.3,90,1,5,7,30.5,0,0,984.8,998.7
2020-04-13T01:31:00+09:00,4.2,�k�k��,9.8,�k,8.2,89.8,1.5,5,7.5,31,0,0,984.8,998.7
2020-04-13T01:32:00+09:00,4.3,�k�k��,9.8,�k,8.2,89.7,1.5,5,7.5,31,0,0,984.8,998.7
2020-04-13T01:33:00+09:00,4.2,�k�k��,9.8,�k,8.2,89.7,1,5,7.5,31,0,0,984.8,998.7
2020-04-13T01:34:00+09:00,4.3,�k�k��,9.8,�k,8.2,89.9,1.5,5.5,8,31.5,0,0,984.8,998.7
2020-04-13T01:35:00+09:00,4.2,�k�k��,9.8,�k,8.2,90.1,1.5,5.5,8,31.5,0,0,984.8,998.7
2020-04-13T01:36:00+09:00,4.3,�k�k��,9.8,�k,8.2,90.3,1.5,5.5,8,31.5,0,0,984.8,998.7
2020-04-13T01:37:00+09:00,4.2,�k�k��,9.8,�k,8.1,90.4,1,5,8,31.5,0,0,984.8,998.7
2020-04-13T01:38:00+09:00,4.4,�k�k��,11,�k��,8.2,90.5,1.5,5.5,8.5,32,0,0,984.7,998.6
2020-04-13T01:39:00+09:00,4.5,�k�k��,11,�k��,8.2,90.6,1.5,5.5,8.5,32,0,0,984.8,998.7
2020-04-13T01:40:00+09:00,4.6,�k�k��,11,�k��,8.2,90.6,1.5,5.5,8.5,32,0,0,984.8,998.7
2020-04-13T01:41:00+09:00,4.3,�k�k��,11,�k��,8.2,90.6,1,5.5,8.5,32,0,0,984.9,998.8
2020-04-13T01:42:00+09:00,4.3,�k�k��,11,�k��,8.2,90.3,1.5,6,9,32.5,0,0,984.8,998.7
2020-04-13T01:43:00+09:00,4.6,�k�k��,11,�k��,8.2,90.2,1.5,6,9,32.5,0,0,984.8,998.7
2020-04-13T01:44:00+09:00,4.7,�k�k��,11,�k��,8.2,90.2,1,5.5,9,32.5,0,0,984.8,998.7
2020-04-13T01:45:00+09:00,4.8,�k�k��,11,�k��,8.2,90,1,5.5,9,32.5,0,0,984.7,998.6
2020-04-13T01:46:00+09:00,4.8,�k�k��,11,�k��,8.2,90,1,5.5,9,32.5,0,0,984.7,998.6
2020-04-13T01:47:00+09:00,4.8,�k�k��,11,�k��,8.3,90.2,1.5,6,9.5,33,0,0,984.7,998.6
2020-04-13T01:48:00+09:00,4.8,�k�k��,10.3,��,8.2,90.2,1,6,9.5,33,0,0,984.7,998.6
2020-04-13T01:49:00+09:00,4.7,�k�k��,10.3,��,8.3,90.1,1,6,9.5,33,0,0,984.7,998.6
2020-04-13T01:50:00+09:00,4.5,�k�k��,10.3,��,8.3,90.2,1,6,9.5,33,0,0,984.8,998.7
2020-04-13T01:51:00+09:00,4.4,�k�k��,10.3,��,8.3,90,1.5,6.5,10,33.5,0,0,984.8,998.7
2020-04-13T01:52:00+09:00,4.3,�k�k��,10.3,��,8.3,90,1,6.5,10,33.5,0,0,984.8,998.7
2020-04-13T01:53:00+09:00,4.2,�k�k��,9.7,�k�k��,8.3,89.9,1,6.5,10,33.5,0,0,984.5,998.4
2020-04-13T01:54:00+09:00,4.3,�k�k��,9.7,�k�k��,8.3,89.9,1,6,10,33.5,0,0,984.5,998.4
2020-04-13T01:55:00+09:00,4.4,�k�k��,10.4,�k,8.3,90,1,6,10,33.5,0,0,984.4,998.3
2020-04-13T01:56:00+09:00,4.4,�k�k��,10.4,�k,8.3,90,1.5,6.5,10.5,34,0,0,984.3,998.2
2020-04-13T01:57:00+09:00,4.5,�k�k��,10.4,�k,8.4,89.8,1,6.5,10.5,34,0,0,984.2,998.1
2020-04-13T01:58:00+09:00,4.5,�k�k��,10.4,�k,8.4,89.8,1,6.5,10.5,34,0,0,984.2,998.1
2020-04-13T01:59:00+09:00,4.6,�k�k��,11.4,�k,8.4,89.7,1.5,7,11,34.5,0,0,984.2,998.1
2020-04-13T02:00:00+09:00,4.8,�k�k��,11.4,�k,8.3,89.6,1.5,7,11,34.5,0,0,984.1,998
2020-04-13T02:01:00+09:00,5.2,�k�k��,11.4,�k,8.4,89.6,1,6.5,11,34.5,0,0,984,997.9
2020-04-13T02:02:00+09:00,5.5,�k�k��,11.4,�k,8.3,89.5,1,6.5,11,34.5,0,0,984,997.9
2020-04-13T02:03:00+09:00,5.5,�k�k��,11.4,�k,8.3,89.3,1,6.5,11,34.5,0,0,984,997.9
2020-04-13T02:04:00+09:00,5.5,�k�k��,11.4,�k,8.3,89.5,1.5,7,11.5,35,0,0,984,997.9
2020-04-13T02:05:00+09:00,5.5,�k�k��,11.4,�k,8.3,89.7,1.5,7,11.5,35,0,0,984,997.9
2020-04-13T02:06:00+09:00,5.6,�k�k��,11.4,�k,8.3,89.6,1,6.5,11.5,35,0,0,984,997.9
2020-04-13T02:07:00+09:00,5.5,�k�k��,11.9,�k,8.3,89.6,1,6.5,11.5,35,0,0,984,997.9
2020-04-13T02:08:00+09:00,5.6,�k�k��,11.9,�k,8.3,89.7,1,6.5,11.5,35,0,0,984,997.9
2020-04-13T02:09:00+09:00,5.8,�k�k��,13.6,�k�k��,8.4,89.9,0.5,6.5,11.5,35,0,0,984,997.9
2020-04-13T02:10:00+09:00,6.2,�k�k��,14.1,�k,8.5,90.1,0.5,6.5,11.5,35,0,0,984.1,998
2020-04-13T02:11:00+09:00,6.1,�k�k��,14.1,�k,8.5,89.8,1,6.5,12,35.5,0,0,984,997.9
2020-04-13T02:12:00+09:00,5.8,�k,14.1,�k,8.4,89.3,1,6.5,12,35.5,0,0,984,997.9
2020-04-13T02:13:00+09:00,5.9,�k,14.1,�k,8.4,89.3,1,6.5,12,35.5,0,0,983.8,997.7
2020-04-13T02:14:00+09:00,6,�k,14.1,�k,8.5,89.5,0.5,6.5,12,35.5,0,0,983.7,997.6
2020-04-13T02:15:00+09:00,5.9,�k,14.1,�k,8.5,89.8,0.5,6.5,12,35.5,0,0,983.6,997.5
2020-04-13T02:16:00+09:00,6.2,�k,14.3,�k��,8.5,89.6,0.5,6.5,12,35.5,0,0,983.4,997.3
2020-04-13T02:17:00+09:00,6.3,�k,14.3,�k��,8.6,89.4,1,7,12.5,36,0,0,983.4,997.3
2020-04-13T02:18:00+09:00,6.4,�k,14.3,�k��,8.6,89.3,1,6.5,12.5,36,0,0,983.5,997.4
2020-04-13T02:19:00+09:00,6.1,�k,14.3,�k��,8.6,89.1,1,6.5,12.5,36,0,0,983.4,997.3
2020-04-13T02:20:00+09:00,5.8,�k,14.3,�k��,8.6,89.1,1,6.5,12.5,36,0,0,983.3,997.2
2020-04-13T02:21:00+09:00,5.9,�k,14.3,�k��,8.6,89.3,0.5,6.5,12.5,36,0,0,983.3,997.2
2020-04-13T02:22:00+09:00,6.4,�k,14.4,�k�k��,8.7,89.3,0.5,6.5,12.5,36,0,0,983.2,997.1
2020-04-13T02:23:00+09:00,6.3,�k,14.4,�k�k��,8.6,89,1,6.5,13,36.5,0,0,983.3,997.2
2020-04-13T02:24:00+09:00,6.2,�k,14.4,�k�k��,8.6,88.9,1,6.5,13,36.5,0,0,983.2,997.1
2020-04-13T02:25:00+09:00,6.3,�k,14.4,�k�k��,8.5,89,1,6.5,13,36.5,0,0,983.2,997.1
2020-04-13T02:26:00+09:00,6.3,�k,16.3,�k,8.5,89.3,1,6.5,13,36.5,0,0,983.2,997.1
2020-04-13T02:27:00+09:00,6.6,�k,16.3,�k,8.6,89.6,0.5,6,13,36.5,0,0,983,996.9
2020-04-13T02:28:00+09:00,6.5,�k,16.3,�k,8.6,89.7,0.5,6,13,36.5,0,0,983.1,997
2020-04-13T02:29:00+09:00,6.4,�k,16.3,�k,8.5,89.4,1,6.5,13.5,37,0,0,983.1,997
2020-04-13T02:30:00+09:00,6.6,�k,16.3,�k,8.5,89.5,1,6.5,13.5,37,0,0,983,996.9
2020-04-13T02:31:00+09:00,6.8,�k,16.3,�k,8.6,89.7,1,6,13.5,37,0,0,983,996.9
2020-04-13T02:32:00+09:00,6.6,�k,16.3,�k,8.6,89.6,1,6,13.5,37,0,0,983.2,997.1
2020-04-13T02:33:00+09:00,7,�k,16.3,�k,8.6,89.3,0.5,6,13.5,37,0,0,983.1,997
2020-04-13T02:34:00+09:00,7.2,�k,16.3,�k,8.6,89.1,0.5,5.5,13.5,37,0,0,983.1,997
2020-04-13T02:35:00+09:00,7.1,�k,16.3,�k,8.5,89,1,6,14,37.5,0,0,983,996.9
2020-04-13T02:36:00+09:00,7.1,�k,14.4,�k�k��,8.5,89.3,1,6,14,37.5,0,0,983.1,997
2020-04-13T02:37:00+09:00,6.6,�k,14.4,�k�k��,8.6,89.6,1,6,14,37.5,0,0,983.1,997
2020-04-13T02:38:00+09:00,7,�k,15.6,�k�k��,8.6,89.5,1.5,6,14.5,38,0,0,982.9,996.8
2020-04-13T02:39:00+09:00,7.2,�k,15.6,�k�k��,8.6,89.3,1,6,14.5,38,0,0,983,996.9
2020-04-13T02:40:00+09:00,7.4,�k,15.6,�k�k��,8.6,89.1,1.5,6.5,15,38.5,0,0,983,996.9
2020-04-13T02:41:00+09:00,7.1,�k,15.6,�k�k��,8.7,89.2,1.5,6.5,15,38.5,0,0,983,996.9
2020-04-13T02:42:00+09:00,7,�k,15.6,�k�k��,8.6,88.8,1.5,6,15,38.5,0,0,982.9,996.8
2020-04-13T02:43:00+09:00,6.8,�k�k��,15.6,�k�k��,8.6,88.7,1.5,6,15,38.5,0,0,982.8,996.7
2020-04-13T02:44:00+09:00,6.8,�k�k��,15.6,�k�k��,8.6,88.7,1.5,6,15,38.5,0,0,982.8,996.7
2020-04-13T02:45:00+09:00,7,�k�k��,15.6,�k�k��,8.6,88.7,1.5,6.5,15.5,39,0,0,982.8,996.7
2020-04-13T02:46:00+09:00,6.8,�k�k��,15.6,�k�k��,8.6,88.6,1.5,6.5,15.5,39,0,0,982.7,996.6
2020-04-13T02:47:00+09:00,6.7,�k�k��,15.6,�k�k��,8.6,88.6,1.5,6,15.5,39,0,0,982.8,996.7
2020-04-13T02:48:00+09:00,6.4,�k�k��,14.5,�k,8.6,88.6,1,6,15.5,39,0,0,982.5,996.4
2020-04-13T02:49:00+09:00,6.3,�k,14.5,�k,8.6,88.8,1,6,15.5,39,0,0,982.7,996.6
2020-04-13T02:50:00+09:00,6.1,�k,14.5,�k,8.5,88.8,1,6.5,16,39.5,0,0,982.7,996.6
2020-04-13T02:51:00+09:00,6,�k,14.5,�k,8.5,89,1,6,16,39.5,0,0,982.7,996.6
2020-04-13T02:52:00+09:00,5.9,�k,14.5,�k,8.4,89.3,1,6,16,39.5,0,0,982.7,996.6
2020-04-13T02:53:00+09:00,6,�k,14.5,�k,8.5,89.6,1.5,6.5,16.5,40,0,0,982.6,996.5
2020-04-13T02:54:00+09:00,6.2,�k,14.5,�k,8.6,89.9,1.5,6.5,16.5,40,0,0,982.7,996.6
2020-04-13T02:55:00+09:00,6.1,�k,13.8,�k,8.6,89.8,1.5,7,17,40.5,0,0,982.8,996.7
2020-04-13T02:56:00+09:00,6.2,�k,13.8,�k,8.6,89.4,1.5,6.5,17,40.5,0,0,982.9,996.8
2020-04-13T02:57:00+09:00,6.5,�k,13.8,�k,8.6,89.5,1.5,6.5,17,40.5,0,0,982.8,996.7
2020-04-13T02:58:00+09:00,6.2,�k,13.8,�k,8.5,89.6,2,7,17.5,41,0,0,982.8,996.7
2020-04-13T02:59:00+09:00,6.2,�k,13.6,�k,8.6,89.8,2,6.5,17.5,41,0,0,982.8,996.7
2020-04-13T03:00:00+09:00,6,�k,13.6,�k,8.6,89.8,1.5,6.5,17.5,41,0,0,982.8,996.7
2020-04-13T03:01:00+09:00,6.1,�k,13.6,�k,8.6,89.6,1.5,6.5,17.5,41,0,0,982.8,996.7
2020-04-13T03:02:00+09:00,6,�k,13.6,�k,8.6,89.4,2,7,18,41.5,0,0,982.8,996.7
2020-04-13T03:03:00+09:00,6,�k,15,�k,8.6,89.3,1.5,7,18,41.5,0,0,982.6,996.5
2020-04-13T03:04:00+09:00,5.8,�k,15,�k,8.6,89.3,1.5,6.5,18,41.5,0,0,982.6,996.5
2020-04-13T03:05:00+09:00,5.7,�k�k��,15,�k,8.6,89.4,1,6.5,18,41.5,0,0,982.5,996.4
2020-04-13T03:06:00+09:00,5.6,�k�k��,15,�k,8.6,89.4,1,6.5,18,41.5,0,0,982.6,996.5
2020-04-13T03:07:00+09:00,5.5,�k�k��,15,�k,8.6,89.4,1.5,7,18.5,42,0,0,982.5,996.4
2020-04-13T03:08:00+09:00,5.8,�k�k��,15,�k,8.6,89.3,1,7,18.5,42,0,0,982.3,996.2
2020-04-13T03:09:00+09:00,5.7,�k�k��,15,�k,8.6,89.3,1,7,18.5,42,0,0,982.2,996.1
2020-04-13T03:10:00+09:00,5.9,�k�k��,15,�k,8.6,89.1,1,7,18.5,42,0,0,981.9,995.8
2020-04-13T03:11:00+09:00,5.9,�k�k��,15,�k,8.6,89,1.5,7,19,42.5,0,0,981.9,995.8
2020-04-13T03:12:00+09:00,6.1,�k�k��,15,�k,8.6,88.9,1,7,19,42.5,0,0,981.9,995.8
2020-04-13T03:13:00+09:00,6.1,�k�k��,14.9,�k�k��,8.6,89,1,7,19,42.5,0,0,981.8,995.7
2020-04-13T03:14:00+09:00,6.1,�k�k��,14.9,�k�k��,8.6,89.1,1,7,19,42.5,0,0,981.8,995.7
2020-04-13T03:15:00+09:00,6.3,�k�k��,14.9,�k�k��,8.6,89.1,1,7,19,42.5,0,0,981.8,995.7
2020-04-13T03:16:00+09:00,6.4,�k�k��,14.9,�k�k��,8.6,89,1.5,7.5,19.5,43,0,0,981.7,995.6
2020-04-13T03:17:00+09:00,6.6,�k�k��,14.9,�k�k��,8.6,88.7,1,7,19.5,43,0,0,981.6,995.5
2020-04-13T03:18:00+09:00,6.5,�k�k��,14.9,�k�k��,8.7,88.5,1,7,19.5,43,0,0,981.7,995.6
2020-04-13T03:19:00+09:00,6.5,�k�k��,14.9,�k�k��,8.6,88.2,1,7,19.5,43,0,0,981.6,995.5
2020-04-13T03:20:00+09:00,6.7,�k�k��,14.9,�k�k��,8.6,88.1,1,7,19.5,43,0,0,981.6,995.5
2020-04-13T03:21:00+09:00,6.9,�k,14.9,�k�k��,8.7,88.1,0.5,7,19.5,43,0,0,981.6,995.5
2020-04-13T03:22:00+09:00,7,�k�k��,14.9,�k�k��,8.6,88.1,1,7.5,20,43.5,0,0,981.7,995.6
2020-04-13T03:23:00+09:00,6.9,�k�k��,15.4,�k�k��,8.6,88.2,1,7,20,43.5,0,0,981.8,995.7
2020-04-13T03:24:00+09:00,7.1,�k�k��,15.4,�k�k��,8.6,88.4,1,7,20,43.5,0,0,981.9,995.8
2020-04-13T03:25:00+09:00,7.1,�k�k��,15.4,�k�k��,8.6,88.3,1,7,20,43.5,0,0,981.7,995.6
2020-04-13T03:26:00+09:00,7.1,�k�k��,15.4,�k�k��,8.6,88.2,0.5,7,20,43.5,0,0,981.8,995.7
2020-04-13T03:27:00+09:00,7,�k,15.9,�k�k��,8.6,88.2,0.5,7,20,43.5,0,0,981.7,995.6
2020-04-13T03:28:00+09:00,7.1,�k�k��,15.9,�k�k��,8.6,88.1,0.5,7,20,43.5,0,0,981.7,995.6
2020-04-13T03:29:00+09:00,7.3,�k�k��,15.9,�k�k��,8.6,88,0.5,6.5,20,43.5,0,0,981.7,995.6
2020-04-13T03:30:00+09:00,7,�k�k��,15.9,�k�k��,8.7,87.9,1,7,20.5,44,0,0,981.8,995.7
2020-04-13T03:31:00+09:00,6.9,�k�k��,15.9,�k�k��,8.6,87.8,1,7,20.5,44,0,0,981.7,995.6
2020-04-13T03:32:00+09:00,6.9,�k�k��,15.9,�k�k��,8.7,87.8,0.5,7,20.5,44,0,0,981.9,995.8
2020-04-13T03:33:00+09:00,7.1,�k�k��,15.9,�k�k��,8.7,87.5,0.5,7,20.5,44,0,0,981.9,995.8
2020-04-13T03:34:00+09:00,7,�k�k��,15.9,�k�k��,8.7,87.2,0.5,7,20.5,44,0,0,981.9,995.8
2020-04-13T03:35:00+09:00,6.9,�k�k��,15.9,�k�k��,8.7,86.9,0.5,6.5,20.5,44,0,0,981.9,995.8
2020-04-13T03:36:00+09:00,6.5,�k�k��,15.9,�k�k��,8.7,86.9,0.5,6.5,20.5,44,0,0,981.8,995.7
2020-04-13T03:37:00+09:00,6.5,�k�k��,15.3,�k��,8.6,87.1,1,7,21,44.5,0,0,981.8,995.7
2020-04-13T03:38:00+09:00,6.7,�k,15.3,�k��,8.6,87.3,1,6.5,21,44.5,0,0,981.8,995.7
2020-04-13T03:39:00+09:00,6.5,�k,15.3,�k��,8.6,87.5,1,6.5,21,44.5,0,0,981.7,995.6
2020-04-13T03:40:00+09:00,6.7,�k,15.3,�k��,8.6,87.7,0.5,6,21,44.5,0,0,981.7,995.6
2020-04-13T03:41:00+09:00,6.7,�k,15.3,�k��,8.6,87.9,1,6.5,21.5,45,0,0,981.6,995.5
2020-04-13T03:42:00+09:00,6.6,�k,14,�k��,8.6,88.1,1,6.5,21.5,45,0,0,981.7,995.6
2020-04-13T03:43:00+09:00,6.5,�k,14,�k��,8.6,87.8,1,6.5,21.5,45,0,0,981.7,995.6
2020-04-13T03:44:00+09:00,6.4,�k,14,�k��,8.6,87.6,1,6.5,21.5,45,0,0,981.8,995.7
2020-04-13T03:45:00+09:00,6.4,�k,14,�k��,8.6,87.5,1,6,21.5,45,0,0,981.8,995.7
2020-04-13T03:46:00+09:00,6.6,�k,14,�k��,8.6,87.7,1,6,21.5,45,0,0,981.9,995.8
2020-04-13T03:47:00+09:00,6.4,�k,14,�k��,8.6,87.7,1,6.5,22,45.5,0,0,981.9,995.8
2020-04-13T03:48:00+09:00,6.5,�k,15.9,�k�k��,8.6,87.9,1,6.5,22,45.5,0,0,981.8,995.7
2020-04-13T03:49:00+09:00,6.3,�k,15.9,�k�k��,8.5,88,1,6.5,22,45.5,0,0,981.9,995.8
2020-04-13T03:50:00+09:00,6,�k,15.9,�k�k��,8.5,88,1,6,22,45.5,0,0,981.9,995.8
2020-04-13T03:51:00+09:00,5.8,�k,15.9,�k�k��,8.5,88.3,0.5,6,22,45.5,0,0,982,995.9
2020-04-13T03:52:00+09:00,5.7,�k,15.9,�k�k��,8.5,88.6,0.5,6,22,45.5,0,0,981.8,995.7
2020-04-13T03:53:00+09:00,5.4,�k,15.9,�k�k��,8.6,88.5,0.5,5.5,22,45.5,0,0,981.9,995.8
2020-04-13T03:54:00+09:00,5.4,�k,15.9,�k�k��,8.6,88,1,6,22.5,46,0,0,982,995.9
2020-04-13T03:55:00+09:00,5.3,�k,15.9,�k�k��,8.5,87.8,1,5.5,22.5,46,0,0,982,995.9
2020-04-13T03:56:00+09:00,5,�k,15.9,�k�k��,8.5,87.9,1,5.5,22.5,46,0,0,982.1,996
2020-04-13T03:57:00+09:00,4.7,�k,15.9,�k�k��,8.4,88.2,0.5,5.5,22.5,46,0,0,982.1,996
2020-04-13T03:58:00+09:00,4.2,�k,11.6,�k,8.4,88.5,0.5,5,22.5,46,0,0,982.1,996
2020-04-13T03:59:00+09:00,4.1,�k,11.6,�k,8.3,88.9,0.5,5,22.5,46,0,0,982.2,996.1
2020-04-13T04:00:00+09:00,4.2,�k�k��,11.6,�k,8.3,89.1,1,5.5,23,46.5,0,0,982.1,996
2020-04-13T04:01:00+09:00,4.2,�k�k��,11.6,�k,8.3,89.3,1,5.5,23,46.5,0,0,982.2,996.1
2020-04-13T04:02:00+09:00,4,�k�k��,9,�k,8.3,89.3,1,5,23,46.5,0,0,982.2,996.1
2020-04-13T04:03:00+09:00,4,�k�k��,9,�k,8.4,89.5,1,5,23,46.5,0,0,982.3,996.2
2020-04-13T04:04:00+09:00,4,�k�k��,8.7,�k,8.4,89.6,1,5.5,23.5,47,0,0,982.3,996.2
2020-04-13T04:05:00+09:00,3.9,�k�k��,9.9,�k,8.4,89.6,1,5.5,23.5,47,0,0,982.2,996.1
2020-04-13T04:06:00+09:00,4.1,�k�k��,9.9,�k,8.4,89.3,1,5.5,23.5,47,0,0,982.3,996.2
2020-04-13T04:07:00+09:00,4.3,�k�k��,10.3,�k�k��,8.5,89.3,1,5,23.5,47,0,0,982.4,996.3
2020-04-13T04:08:00+09:00,4.2,�k�k��,10.3,�k�k��,8.4,89,1,5,23.5,47,0,0,982.4,996.3
2020-04-13T04:09:00+09:00,4.4,�k�k��,10.3,�k�k��,8.4,88.9,1.5,5.5,24,47.5,0,0,982.5,996.4
2020-04-13T04:10:00+09:00,4.6,�k�k��,10.3,�k�k��,8.4,88.8,1,5.5,24,47.5,0,0,982.4,996.3
2020-04-13T04:11:00+09:00,4.8,�k�k��,10.3,�k�k��,8.4,88.7,1,5,24,47.5,0,0,982.5,996.4
2020-04-13T04:12:00+09:00,5,�k�k��,10.3,�k�k��,8.4,88.3,1,5,24,47.5,0,0,982.5,996.4
2020-04-13T04:13:00+09:00,5.3,�k�k��,10.3,�k�k��,8.4,88.2,1,5,24,47.5,0,0,982.2,996.1
2020-04-13T04:14:00+09:00,5.5,�k�k��,10.3,�k�k��,8.4,88,0.5,5,24,47.5,0,0,982.1,996
2020-04-13T04:15:00+09:00,5.6,�k��,10.3,�k�k��,8.4,87.8,1,5.5,24.5,48,0,0,982,995.9
2020-04-13T04:16:00+09:00,5.6,�k��,10.3,�k�k��,8.3,87.8,1,5,24.5,48,0,0,981.9,995.8
2020-04-13T04:17:00+09:00,5.6,�k��,10.1,�k��,8.3,87.9,1,5,24.5,48,0,0,981.8,995.7
2020-04-13T04:18:00+09:00,5.7,�k�k��,10.6,�k�k��,8.3,88.2,1,5,24.5,48,0,0,981.6,995.5
2020-04-13T04:19:00+09:00,5.7,�k�k��,10.6,�k�k��,8.3,88.4,0.5,5,24.5,48,0,0,981.5,995.4
2020-04-13T04:20:00+09:00,5.4,�k�k��,10.6,�k�k��,8.2,88.4,1,5.5,25,48.5,0,0,981.4,995.3
2020-04-13T04:21:00+09:00,5.1,�k�k��,10.6,�k�k��,8.3,88.6,1,5.5,25,48.5,0,0,981.3,995.2
2020-04-13T04:22:00+09:00,5,�k�k��,10.6,�k�k��,8.3,88.7,1,5,25,48.5,0,0,981.2,995.1
2020-04-13T04:23:00+09:00,5,�k�k��,10.8,�k��,8.3,88.5,1,5,25,48.5,0,0,981.1,995
2020-04-13T04:24:00+09:00,4.8,�k�k��,11.1,�k�k��,8.2,88.3,1,5,25,48.5,0,0,981.1,995
2020-04-13T04:25:00+09:00,4.8,�k�k��,11.1,�k�k��,8.2,88.1,1,5.5,25.5,49,0,0,981.1,995
2020-04-13T04:26:00+09:00,4.7,�k�k��,11.1,�k�k��,8.2,88.3,1,5.5,25.5,49,0,0,981,994.9
2020-04-13T04:27:00+09:00,4.8,�k�k��,11.1,�k�k��,8.2,88.7,1,5.5,25.5,49,0,0,981,994.9
2020-04-13T04:28:00+09:00,4.8,�k�k��,11.1,�k�k��,8.2,88.8,1,5.5,25.5,49,0,0,981.1,995
2020-04-13T04:29:00+09:00,4.8,�k�k��,11.1,�k�k��,8.2,88.8,1.5,6,26,49.5,0,0,981.2,995.1
2020-04-13T04:30:00+09:00,4.9,�k�k��,11.1,�k�k��,8.2,88.8,1,5.5,26,49.5,0,0,981.3,995.2
2020-04-13T04:31:00+09:00,5,�k�k��,11.1,�k�k��,8.2,88.9,1,5.5,26,49.5,0,0,981.3,995.2
2020-04-13T04:32:00+09:00,5,�k�k��,11.1,�k�k��,8.1,88.7,1,5.5,26,49.5,0,0,981.3,995.2
2020-04-13T04:33:00+09:00,4.8,�k�k��,11.1,�k�k��,8.2,88.9,1,5.5,26,49.5,0,0,981.4,995.3
2020-04-13T04:34:00+09:00,4.7,�k�k��,10.9,�k��,8.1,88.9,1,5.5,26,49.5,0,0,981.5,995.4
2020-04-13T04:35:00+09:00,4.6,�k�k��,10.9,�k��,8.1,88.9,1,6,26.5,50,0,0,981.5,995.4
2020-04-13T04:36:00+09:00,4.7,�k�k��,10.4,�k,8.1,89.1,1,6,26.5,50,0,0,981.5,995.4
2020-04-13T04:37:00+09:00,4.6,�k�k��,10.4,�k,8.1,89.2,1,5.5,26.5,50,0,0,981.4,995.3
2020-04-13T04:38:00+09:00,4.6,�k�k��,10.4,�k,8.1,89.3,1,5.5,26.5,50,0,0,981.3,995.2
2020-04-13T04:39:00+09:00,4.6,�k�k��,10.4,�k,8.1,89.4,0.5,5.5,26.5,50,0,0,981.4,995.3
2020-04-13T04:40:00+09:00,4.5,�k�k��,10.4,�k,8.2,89.4,0.5,5.5,26.5,50,0,0,981.4,995.3
2020-04-13T04:41:00+09:00,4.5,�k�k��,10.4,�k,8.2,89.3,0.5,5,26.5,50,0,0,981.4,995.3
2020-04-13T04:42:00+09:00,4.4,�k�k��,9.5,�k,8.1,89.1,1,5.5,27,50.5,0,0,981.4,995.3
2020-04-13T04:43:00+09:00,4.5,�k�k��,8.9,�k��,8.1,89.1,1,5.5,27,50.5,0,0,981.5,995.4
2020-04-13T04:44:00+09:00,4.7,�k�k��,8.9,�k��,8.2,89.2,1,5.5,27,50.5,0,0,981.4,995.3
2020-04-13T04:45:00+09:00,4.8,�k�k��,8.9,�k��,8.2,89,0.5,5.5,27,50.5,0,0,981.5,995.4
2020-04-13T04:46:00+09:00,4.6,�k�k��,8.9,�k��,8.2,88.7,0.5,5.5,27,50.5,0,0,981.5,995.4
2020-04-13T04:47:00+09:00,4.6,�k�k��,8.9,�k��,8.2,88.5,0.5,5,27,50.5,0,0,981.5,995.4